[[{"header":{"parameterUnit":"m.s-1","parameterCategory":1,"la1":30.2991,"la2":30.254,"lo1":-89.0895,"lo2":-89.0444,"dy":0.0017,"dx":0.0017,"nx":28,"ny":28,"refTime":"2024-05-30T03:00:00:Z","depth":0,"parameterNumber":2,"parameterNumberName":"U-component_of_WINDS"},"data":[0,0,0,0,0,0,0,0,0,0,0,0,0,0,0,0,0,0,0,0,0,0,0,0,0,0,0,0,0,0,0,0,0,0,0,0,0,0,0,0,0,0,0,0,0,0,0,0,0,0,0,0,0,0,0,0,0,0,-2.406,-2.406,0,-2.4123,-2.4123,-2.4124,-2.4131,-2.4131,-2.413,-2.4129,-2.4192,-2.4194,-2.4196,0,0,0,0,0,0,0,0,0,0,0,0,0,-2.3943,-2.3945,-2.406,-2.406,-2.4061,-2.4123,-2.4124,-2.4124,-2.4131,-2.4131,-2.413,-2.4129,-2.4191,-2.4194,-2.4196,0,0,0,0,0,0,0,0,0,0,0,0,0,-2.3998,-2.3946,-2.4059,-2.4072,-2.4074,-2.4122,-2.4124,-2.4125,-2.4132,-2.4131,-2.413,-2.4129,-2.419,-2.4193,-2.4197,-2.4236,0,0,-2.4207,-2.4208,0,0,0,0,0,0,0,0,-2.3995,-2.4003,-2.407,-2.4071,-2.4073,-2.4118,-2.4105,-2.4162,-2.4132,-2.411,-2.4129,-2.4128,-2.4168,-2.4173,-2.4187,-2.4239,-2.4242,-2.4207,-2.4209,-2.4211,-2.4212,0,0,0,0,0,0,0,-2.3991,-2.4,-2.4085,-2.407,-2.4073,-2.4074,-2.4081,-2.4116,-2.4143,-2.4111,-2.4112,-2.412,-2.4169,-2.4183,-2.4188,-2.4242,-2.4207,-2.421,-2.4212,-2.4213,-2.4329,-2.433,0,0,0,0,0,0,-2.3985,-2.3997,-2.4083,-2.4086,-2.4031,-2.4077,-2.4085,-2.4105,-2.4143,-2.4148,-2.412,-2.412,-2.4178,-2.4184,-2.419,-2.4238,-2.4211,-2.4214,-2.4216,-2.4328,-2.4329,-2.433,0,0,0,0,0,0,-2.3983,-2.3993,-2.408,-2.4042,-2.4053,-2.408,-2.4103,-2.4107,-2.4121,-2.415,-2.4154,-2.4131,-2.4178,-2.4186,-2.4225,-2.424,-2.4215,-2.4218,-2.4327,-2.4328,-2.433,-2.4334,0,0,0,0,0,0,-2.398,-2.3992,-2.4008,-2.4042,-2.4055,-2.4114,-2.4104,-2.4108,-2.4127,-2.4127,-2.416,-2.4165,-2.4178,-2.4219,-2.4228,-2.4244,-2.4221,-2.4325,-2.4327,-2.4329,-2.4333,-2.4336,-2.4338,0,0,0,0,0,-2.3975,-2.4006,-2.4009,-2.4019,-2.4075,-2.4115,-2.4122,-2.4136,-2.4129,-2.4144,-2.4162,-2.4164,-2.4238,-2.4223,-2.4233,-2.4251,-2.4324,-2.4327,-2.4329,-2.4331,-2.4335,-2.4338,0,0,0,0,0,0,-2.3972,-2.4011,-2.4014,-2.4057,-2.4083,-2.4116,-2.4136,-2.414,-2.4168,-2.4166,-2.4182,-2.419,-2.4228,-2.4243,-2.4227,-2.429,-2.428,-2.4284,-2.4278,-2.4282,-2.4285,-2.428,-2.4224,0,0,0,0,0,-2.3977,-2.4006,-2.4038,-2.4073,-2.4086,-2.4109,-2.4126,-2.4136,-2.4162,-2.4173,-2.4194,-2.4219,-2.4248,-2.4266,-2.4294,-2.4335,-2.4342,-2.4352,-2.4355,-2.4357,-2.436,-2.4382,-2.4387,-2.4338,-2.4338,-2.4338,0,0,-2.3986,-2.4011,-2.4028,-2.4073,-2.4094,-2.4123,-2.4118,-2.4149,-2.417,-2.4177,-2.4215,-2.4231,-2.426,-2.43,-2.4319,-2.4314,-2.4375,-2.436,-2.4362,-2.4364,-2.4385,-2.439,-2.4394,-2.434,-2.434,-2.4339,0,0,-2.4018,-2.404,-2.4071,-2.4092,-2.4124,-2.4139,-2.4146,-2.4179,-2.419,-2.4229,-2.4234,-2.426,-2.4309,-2.433,-2.4346,-2.4386,-2.4387,-2.4394,-2.4408,-2.4429,-2.4433,-2.4436,-2.4449,-2.4453,-2.4398,-2.4398,-2.4398,0,-2.4025,-2.4069,-2.4086,-2.4117,-2.4136,-2.4145,-2.4176,-2.4195,-2.4234,-2.4247,-2.4242,-2.4303,-2.4324,-2.4368,-2.4378,-2.4391,-2.4399,-2.439,-2.4431,-2.4435,-2.4438,-2.445,-2.4455,-2.4398,-2.4398,-2.4398,-2.4398,0,-2.4076,-2.4107,-2.4128,-2.4166,-2.4188,-2.4218,-2.4239,-2.4258,-2.4266,-2.4281,-2.432,-2.4345,-2.4377,-2.4389,-2.4396,-2.4434,-2.443,-2.4428,-2.4418,-2.4443,-2.4455,-2.446,-2.4399,-2.4399,-2.4399,-2.4398,0,0,-2.4106,-2.4153,-2.4161,-2.4177,-2.4213,-2.4237,-2.4268,-2.4301,-2.4317,-2.4344,-2.4369,-2.4411,-2.4409,-2.4428,-2.4438,-2.4457,-2.4485,-2.4452,-2.4453,-2.4456,-2.4526,-2.4526,-2.4531,-2.4487,-2.4488,-2.4489,-2.4523,0,-2.414,-2.4196,-2.4212,-2.4258,-2.4286,-2.4295,-2.4322,-2.4346,-2.4362,-2.4387,-2.4404,-2.4433,-2.4429,-2.444,-2.446,-2.4477,-2.4499,-2.4475,-2.4509,-2.451,-2.45,-2.4538,-2.4538,-2.4569,-2.4528,-2.4529,-2.4529,0,-2.4187,-2.4216,-2.4265,-2.4297,-2.4309,-2.4333,-2.4364,-2.4389,-2.4416,-2.4426,-2.4447,-2.4456,-2.4487,-2.4477,-2.4519,-2.4503,-2.4518,-2.4529,-2.4531,-2.4533,-2.452,-2.4539,-2.458,-2.4584,-2.4537,-2.4536,-2.4536,0,-2.4202,-2.4253,-2.4289,-2.4303,-2.4342,-2.4358,-2.4374,-2.4401,-2.442,-2.4447,-2.4459,-2.4489,-2.4505,-2.4528,-2.4544,-2.4535,-2.4585,-2.4576,-2.4593,-2.4592,-2.4601,-2.46,-2.4643,-2.4614,-2.4614,-2.4614,-2.4614,0,-2.4238,-2.4267,-2.4296,-2.4317,-2.4351,-2.4368,-2.44,-2.4417,-2.4441,-2.4466,-2.4476,-2.4498,-2.4519,-2.4544,-2.4557,-2.459,-2.4597,-2.4605,-2.4608,-2.4603,-2.4602,-2.4612,-2.4609,-2.4615,-2.4615,-2.4614,-2.4614,0,-2.4259,-2.428,-2.4319,-2.4353,-2.4362,-2.4384,-2.4413,-2.4434,-2.445,-2.4481,-2.4489,-2.4514,-2.4544,-2.4562,-2.4601,-2.4609,-2.4645,-2.4647,-2.4635,-2.4636,-2.4651,-2.4649,-2.4701,-2.4708,-2.4675,-2.4676,-2.4676,0,-2.428,-2.4303,-2.4339,-2.4356,-2.4373,-2.4401,-2.442,-2.4439,-2.4458,-2.4492,-2.4508,-2.4539,-2.4565,-2.4613,-2.4633,-2.4663,-2.4665,-2.4681,-2.4669,-2.4664,-2.4663,-2.4661,-2.4663,-2.4682,-2.4683,-2.4683,-2.4683,0,-2.4314,-2.4323,-2.435,-2.4381,-2.4404,-2.4429,-2.4454,-2.4468,-2.449,-2.4511,-2.4543,-2.4563,-2.4602,-2.4632,-2.4663,-2.4679,-2.4684,-2.4687,-2.4692,-2.4687,-2.4678,-2.4682,-2.4639,-2.4685,-2.4685,-2.4685,-2.4685,-2.4685,-2.4334,-2.4355,-2.4383,-2.4413,-2.4434,-2.4457,-2.4478,-2.4497,-2.4524,-2.4558,-2.4567,-2.4599,-2.4626,-2.4668,-2.4685,-2.471,-2.4708,-2.4716,-2.4717,-2.4718,-2.4718,-2.4676,-2.4716,-2.4716,-2.4716,-2.4716,-2.4716,0,-2.4367,-2.4386,-2.4414,-2.4448,-2.4472,-2.4476,-2.4504,-2.4523,-2.4552,-2.4577,-2.4602,-2.4637,-2.4667,-2.469,-2.472,-2.4735,-2.4739,-2.4743,-2.4741,-2.4744,-2.4719,-2.4711,-2.4739,-2.4739,-2.4739,-2.4739,-2.4739,-2.4739,-2.4387,-2.4421,-2.4434,-2.4478,-2.4497,-2.4529,-2.4544,-2.4565,-2.4585,-2.4625,-2.4649,-2.4665,-2.4689,-2.472,-2.4747,-2.4753,-2.4763,-2.4766,-2.4773,-2.4749,-2.4746,-2.4743,-2.4736,-2.4769,-2.4769,-2.4795,-2.4796,-2.4796]},{"header":{"parameterUnit":"m.s-1","parameterCategory":1,"la1":30.2991,"la2":30.254,"lo1":-89.0895,"lo2":-89.0444,"dy":0.0017,"dx":0.0017,"nx":28,"ny":28,"refTime":"2024-05-30T03:00:00:Z","depth":0,"parameterNumber":3,"parameterNumberName":"V-component_of_WINDS"},"data":[0,0,0,0,0,0,0,0,0,0,0,0,0,0,0,0,0,0,0,0,0,0,0,0,0,0,0,0,0,0,0,0,0,0,0,0,0,0,0,0,0,0,0,0,0,0,0,0,0,0,0,0,0,0,0,0,0,0,2.417,2.4169,0,2.4131,2.413,2.413,2.4025,2.4023,2.4021,2.4019,2.3982,2.3983,2.3984,0,0,0,0,0,0,0,0,0,0,0,0,0,2.4157,2.4158,2.417,2.4169,2.4169,2.4131,2.413,2.413,2.4026,2.4023,2.402,2.4018,2.3981,2.3983,2.3984,0,0,0,0,0,0,0,0,0,0,0,0,0,2.4145,2.4158,2.417,2.4112,2.4107,2.4131,2.413,2.4129,2.4026,2.4023,2.402,2.4016,2.3981,2.3983,2.3984,2.4062,0,0,2.3989,2.399,0,0,0,0,0,0,0,0,2.4146,2.4146,2.4121,2.4116,2.411,2.4079,2.4112,2.4107,2.4027,2.4057,2.4019,2.4015,2.4017,2.4016,2.4016,2.406,2.4059,2.399,2.3991,2.3991,2.3992,0,0,0,0,0,0,0,2.4147,2.4147,2.4154,2.4121,2.4114,2.4089,2.4084,2.4111,2.4057,2.4054,2.4046,2.4043,2.4014,2.4015,2.4014,2.4058,2.3989,2.3991,2.3992,2.3993,2.4164,2.4167,0,0,0,0,0,0,2.4156,2.4148,2.4155,2.4153,2.412,2.4092,2.4086,2.4093,2.4056,2.4047,2.4046,2.4038,2.4013,2.4012,2.4013,2.41,2.3991,2.3993,2.3994,2.4161,2.4165,2.4169,0,0,0,0,0,0,2.4156,2.4157,2.4157,2.4149,2.4147,2.4096,2.4104,2.4094,2.4094,2.405,2.404,2.4057,2.4011,2.401,2.405,2.4097,2.3994,2.3995,2.4156,2.4162,2.4167,2.4277,0,0,0,0,0,0,2.4156,2.4158,2.4186,2.415,2.4147,2.4195,2.4107,2.4095,2.4097,2.4087,2.4057,2.4049,2.4008,2.4048,2.4052,2.4098,2.3996,2.4152,2.4159,2.4165,2.4269,2.4285,2.4299,0,0,0,0,0,2.4156,2.4219,2.4188,2.4189,2.4181,2.4197,2.4196,2.4147,2.4101,2.413,2.4101,2.405,2.4092,2.4053,2.4056,2.4104,2.4149,2.4157,2.4165,2.4262,2.4282,2.4299,0,0,0,0,0,0,2.4263,2.4213,2.4178,2.4232,2.422,2.418,2.4214,2.417,2.4171,2.4161,2.4101,2.4095,2.4144,2.4128,2.4085,2.4177,2.4112,2.4121,2.4185,2.4204,2.4219,2.4221,2.3998,0,0,0,0,0,2.4293,2.4309,2.4265,2.4317,2.4312,2.4265,2.427,2.4233,2.4218,2.4213,2.4187,2.4176,2.4186,2.4194,2.4202,2.4267,2.4258,2.4301,2.4316,2.4329,2.4337,2.437,2.4388,2.4195,2.4195,2.4195,0,0,2.4355,2.433,2.4344,2.4338,2.4324,2.4343,2.4261,2.4284,2.4298,2.4217,2.4252,2.4233,2.4217,2.4269,2.4291,2.4258,2.4389,2.4339,2.435,2.4351,2.438,2.4398,2.4415,2.42,2.4199,2.4199,0,0,2.4476,2.4459,2.45,2.4488,2.4467,2.4435,2.4446,2.4413,2.4397,2.4431,2.4371,2.4387,2.4407,2.4397,2.4395,2.4515,2.4467,2.4519,2.4598,2.4631,2.4646,2.4659,2.4701,2.4717,2.4527,2.4528,2.4528,0,2.4555,2.458,2.4526,2.4553,2.4553,2.448,2.4521,2.4512,2.4496,2.4498,2.4461,2.4483,2.4467,2.4516,2.4546,2.4547,2.4557,2.4521,2.4648,2.4661,2.4672,2.4712,2.4728,2.4534,2.4533,2.4533,2.4532,0,2.4678,2.4697,2.4732,2.4717,2.4721,2.4756,2.4708,2.4718,2.4682,2.4654,2.4691,2.4669,2.467,2.468,2.4645,2.4725,2.4704,2.4659,2.4592,2.4698,2.4734,2.4748,2.4543,2.4541,2.4539,2.4537,0,0,2.4864,2.482,2.4834,2.4826,2.4799,2.4813,2.4845,2.4845,2.4855,2.4847,2.4872,2.4891,2.4849,2.4847,2.481,2.4839,2.4935,2.479,2.4789,2.4817,2.5021,2.5054,2.5072,2.4904,2.4907,2.4909,2.5021,0,2.4978,2.5027,2.498,2.504,2.5056,2.4988,2.5015,2.5003,2.4978,2.499,2.4963,2.4977,2.4921,2.4919,2.4945,2.4918,2.4975,2.4909,2.4927,2.4928,2.4931,2.5091,2.5125,2.5232,2.5035,2.5038,2.5039,0,2.5116,2.5113,2.5174,2.5143,2.5149,2.5174,2.5171,2.5183,2.5167,2.5148,2.5146,2.5101,2.5131,2.5068,2.5108,2.5065,2.507,2.5058,2.5061,2.5059,2.4989,2.5092,2.5265,2.5281,2.5061,2.5059,2.5058,0,2.5244,2.5256,2.5293,2.5289,2.5255,2.5274,2.5261,2.5243,2.5246,2.5244,2.5246,2.5249,2.525,2.5253,2.5211,2.5169,2.5257,2.519,2.5241,2.5242,2.5261,2.526,2.5436,2.5267,2.5267,2.5267,2.5267,0,2.5374,2.5414,2.535,2.5373,2.5416,2.5363,2.5407,2.5387,2.5371,2.539,2.5332,2.5351,2.5295,2.5309,2.5277,2.5315,2.5316,2.5301,2.5292,2.5305,2.5307,2.5306,2.5297,2.5271,2.527,2.5269,2.5269,0,2.5523,2.5483,2.5519,2.5483,2.5476,2.5509,2.5479,2.5499,2.5472,2.5496,2.5499,2.5456,2.5469,2.5428,2.5435,2.5413,2.5469,2.5448,2.5473,2.5466,2.5519,2.5515,2.57,2.5721,2.5541,2.5542,2.5544,0,2.5608,2.5637,2.5605,2.5612,2.5602,2.5616,2.5619,2.5568,2.5574,2.556,2.5582,2.559,2.5594,2.5618,2.5588,2.5593,2.5571,2.5636,2.5572,2.5585,2.5571,2.5569,2.5571,2.5649,2.5651,2.5653,2.5655,0,2.5763,2.5741,2.5747,2.5747,2.5752,2.575,2.5743,2.5753,2.5699,2.5709,2.5721,2.5724,2.5731,2.574,2.5739,2.5726,2.5682,2.5676,2.5687,2.57,2.5713,2.5706,2.5508,2.5671,2.5669,2.5668,2.5667,2.5667,2.5881,2.5903,2.5884,2.5893,2.5883,2.5878,2.5895,2.587,2.5879,2.5879,2.585,2.5869,2.5854,2.5847,2.584,2.5854,2.5824,2.5842,2.5846,2.585,2.5859,2.5713,2.5854,2.5853,2.5853,2.5852,2.5852,0,2.6032,2.6016,2.6025,2.6017,2.6025,2.5982,2.5973,2.5982,2.5999,2.5988,2.5993,2.6007,2.6016,2.5987,2.5992,2.6009,2.5989,2.6012,2.6009,2.6007,2.5886,2.5874,2.6028,2.6028,2.6028,2.6028,2.6028,2.6028,2.611,2.6145,2.6122,2.6152,2.6136,2.6153,2.6151,2.6147,2.6138,2.6157,2.6163,2.6144,2.6127,2.613,2.6136,2.6128,2.6132,2.6162,2.6147,2.6033,2.6016,2.5999,2.5988,2.6164,2.6164,2.6266,2.6267,2.6268]}]]